Wind_Speed
48 47 47 46 44 41 38 35 32 30 28 28 27 22 18 17 15 18 16 11 8 7
47 46 48 48 44 41 39 35 31 29 28 24 21 21 22 19 19 15 13 12 10 9
46 45 47 48 44 42 36 32 31 28 25 25 24 20 21 21 17 13 14 13 11 8
47 48 47 47 42 40 36 33 30 30 30 25 26 25 18 16 16 14 13 11 8 5
46 47 47 45 41 37 35 35 34 30 28 28 26 20 17 16 14 11 9 8 6 4
46 44 41 40 38 40 38 37 34 33 29 26 22 18 16 13 12 9 7 5 3 1
38 36 37 43 45 45 40 36 34 32 27 22 20 17 14 12 10 8 6 4 1 1
38 42 48 47 44 41 41 36 30 29 25 21 17 15 12 11 8 6 4 1 1 5
53 53 52 46 45 42 37 33 28 26 23 21 17 14 12 9 6 4 1 2 4 8
54 51 50 47 42 38 33 29 26 24 21 19 16 13 10 7 4 2 2 5 8 11
50 50 46 42 40 35 30 27 24 22 19 17 14 11 8 5 3 2 5 7 9 10
45 45 42 39 35 32 28 25 22 20 18 14 13 9 6 4 3 4 6 7 9 13
41 39 37 35 32 29 24 23 22 20 15 13 10 8 6 3 3 4 6 9 11 13
36 34 31 30 27 25 23 22 19 15 13 10 8 6 3 2 3 5 9 10 11 12
Wind_Direction
217 217 219 218 220 218 221 214 212 209 206 203 193 190 181 169 178 158 136 152 158 157
220 218 217 215 213 219 210 204 202 201 194 184 178 160 160 151 122 120 140 141 155 159
217 216 216 215 211 209 197 199 192 180 172 156 148 145 126 116 126 139 149 151 153 149
214 214 209 208 200 193 190 184 171 160 151 147 139 117 119 132 144 152 152 143 127 123
211 206 204 195 185 181 169 157 151 147 147 133 115 129 146 146 145 148 133 130 135 122
200 196 184 175 166 153 148 147 146 147 126 122 133 145 146 146 141 134 140 134 118 91
177 170 160 147 146 141 142 143 133 121 129 139 150 144 143 139 140 148 141 133 135 317
156 147 140 140 139 137 139 127 129 136 146 141 140 140 138 144 145 144 131 132 340 348
142 141 138 137 141 135 128 135 145 147 141 138 140 144 145 142 135 139 145 20 352 348
138 136 137 139 132 129 137 146 144 142 142 141 144 145 137 131 155 112 37 358 349 336
139 138 135 130 128 140 143 145 144 141 145 146 139 140 144 132 117 53 5 343 336 330
138 131 128 133 140 141 142 143 142 144 146 144 138 133 124 98 49 6 339 330 328 330
127 131 140 138 137 138 143 145 149 145 143 135 130 106 79 52 357 338 334 331 329 325
138 135 134 135 137 143 149 146 145 140 131 119 102 97 84 357 335 341 333 327 328 326
Height
1440 1447 1453 1460 1466 1472 1476 1481 1486 1488 1492 1495 1499 1501 1503 1504 1507 1512 1516 1518 1522 1525
1436 1441 1446 1453 1458 1465 1470 1475 1481 1487 1491 1496 1499 1502 1501 1505 1509 1512 1516 1520 1524 1525
1430 1435 1440 1446 1450 1458 1463 1472 1480 1486 1492 1496 1500 1503 1507 1506 1512 1516 1519 1520 1521 1524
1425 1430 1434 1439 1445 1452 1460 1468 1480 1486 1492 1496 1500 1502 1511 1514 1515 1518 1520 1521 1522 1524
1422 1426 1429 1433 1441 1452 1461 1470 1480 1487 1494 1496 1499 1508 1513 1514 1517 1520 1521 1521 1522 1523
1418 1423 1429 1433 1442 1454 1464 1475 1479 1486 1493 1499 1504 1511 1512 1516 1518 1520 1522 1522 1523 1524
1417 1426 1432 1442 1447 1454 1467 1479 1484 1487 1496 1503 1507 1510 1514 1517 1518 1520 1520 1521 1522 1523
1420 1430 1435 1449 1457 1463 1471 1480 1492 1493 1499 1502 1509 1513 1514 1516 1519 1520 1520 1521 1522 1522
1426 1434 1442 1453 1464 1465 1475 1485 1493 1495 1498 1501 1509 1513 1514 1516 1518 1519 1519 1519 1519 1518
1436 1441 1448 1456 1462 1472 1483 1490 1495 1498 1500 1502 1507 1512 1514 1515 1519 1517 1517 1518 1517 1517
1441 1446 1454 1463 1469 1480 1486 1494 1499 1500 1504 1506 1507 1511 1513 1515 1516 1517 1517 1516 1515 1514
1451 1454 1462 1469 1475 1482 1492 1498 1501 1504 1506 1507 1508 1509 1512 1514 1517 1516 1515 1514 1513 1510
1458 1464 1471 1475 1481 1487 1495 1498 1504 1506 1507 1504 1508 1510 1512 1513 1514 1513 1512 1512 1510 1508
1468 1472 1478 1482 1487 1492 1498 1502 1504 1503 1505 1507 1508 1510 1512 1512 1512 1511 1510 1509 1507 1505